When you browse on this site, cookies collect data to enhance your experience and personalize the content and advertising you see.
Visit our Privacy Policy to learn more. By continuing to use the site, you agree to this use of cookies and data.
  • en Suisse
  • Liste des pays
  • À 7 jours
  • Température de l'eau
  • Carte satellitaire
  • Carte météo
  • Widgets météo
  • user-avatar
    Se connecter

    Météo par heure à Tovstoluh

    Ce jour, 24 Mai, Vendredi

    Heure Température Précipitation Vent Pression Humidité
    00:00 +14°C° 0 mm 2 m/s 730 mmHg 95%
    01:00 +13°C° 0 mm 2 m/s 730 mmHg 95%
    02:00 +13°C° 0 mm 2 m/s 729 mmHg 96%
    03:00 +13°C° 0 mm 2 m/s 729 mmHg 97%
    04:00 +13°C° 0 mm 2 m/s 730 mmHg 97%
    05:00 +13°C° 0 mm 2 m/s 730 mmHg 97%
    06:00 +14°C° 0 mm 2 m/s 730 mmHg 94%
    07:00 +15°C° 0 mm 2 m/s 730 mmHg 92%
    08:00 +16°C° 0 mm 2 m/s 730 mmHg 89%
    09:00 +17°C° 0.3 mm 2 m/s 730 mmHg 85%
    10:00 +18°C° 0.3 mm 2 m/s 730 mmHg 82%
    11:00 +19°C° 0.3 mm 2 m/s 730 mmHg 79%
    12:00 +20°C° 0.2 mm 2 m/s 729 mmHg 76%
    13:00 +21°C° 0.2 mm 2 m/s 729 mmHg 72%
    14:00 +21°C° 0.2 mm 2 m/s 729 mmHg 69%
    15:00 +21°C° 0.4 mm 2 m/s 729 mmHg 69%
    16:00 +23°C° 0.4 mm 2 m/s 729 mmHg 68%
    17:00 +23°C° 0.4 mm 2 m/s 729 mmHg 68%
    18:00 +20°C° 0.6 mm 2 m/s 729 mmHg 74%
    19:00 +19°C° 0.6 mm 2 m/s 729 mmHg 80%
    20:00 +17°C° 0.6 mm 2 m/s 728 mmHg 86%
    21:00 +18°C° 1.8 mm 1 m/s 728 mmHg 87%
    22:00 +16°C° 1.8 mm 1 m/s 728 mmHg 88%
    23:00 +15°C° 1.8 mm 0 m/s 728 mmHg 89%

    Demain, 25 Mai, Samedi

    Heure Température Précipitation Vent Pression Humidité
    00:00 +15°C° 0 mm 1 m/s 728 mmHg 90%
    01:00 +15°C° 0 mm 1 m/s 728 mmHg 91%
    02:00 +14°C° 0 mm 2 m/s 728 mmHg 93%
    03:00 +14°C° 0.1 mm 2 m/s 728 mmHg 94%
    04:00 +14°C° 0.1 mm 2 m/s 728 mmHg 95%
    05:00 +14°C° 0.1 mm 2 m/s 728 mmHg 96%
    06:00 +14°C° 0.1 mm 3 m/s 728 mmHg 94%
    07:00 +16°C° 0.1 mm 3 m/s 729 mmHg 92%
    08:00 +17°C° 0.1 mm 4 m/s 729 mmHg 90%
    09:00 +18°C° 0.7 mm 4 m/s 729 mmHg 86%
    10:00 +19°C° 0.7 mm 4 m/s 729 mmHg 82%
    11:00 +20°C° 0.7 mm 5 m/s 729 mmHg 79%
    12:00 +20°C° 0.9 mm 5 m/s 729 mmHg 78%
    13:00 +20°C° 0.9 mm 5 m/s 729 mmHg 77%
    14:00 +21°C° 0.9 mm 5 m/s 729 mmHg 76%
    15:00 +21°C° 0.4 mm 5 m/s 729 mmHg 77%
    16:00 +20°C° 0.4 mm 5 m/s 729 mmHg 77%
    17:00 +20°C° 0.4 mm 5 m/s 729 mmHg 77%
    18:00 +19°C° 0.1 mm 4 m/s 729 mmHg 82%
    19:00 +18°C° 0.1 mm 3 m/s 729 mmHg 87%
    20:00 +16°C° 0.1 mm 3 m/s 729 mmHg 92%
    21:00 +16°C° 0 mm 3 m/s 730 mmHg 93%
    22:00 +14°C° 0 mm 3 m/s 730 mmHg 94%
    23:00 +13°C° 0 mm 3 m/s 730 mmHg 94%

    Après-demain, 26 Mai, Dimanche

    Heure Température Précipitation Vent Pression Humidité
    00:00 +13°C° 0 mm 3 m/s 730 mmHg 94%
    01:00 +12°C° 0 mm 3 m/s 731 mmHg 93%
    02:00 +12°C° 0 mm 3 m/s 731 mmHg 93%
    03:00 +12°C° 0 mm 3 m/s 731 mmHg 93%
    04:00 +11°C° 0 mm 3 m/s 731 mmHg 93%
    05:00 +11°C° 0 mm 3 m/s 731 mmHg 93%
    06:00 +13°C° 0 mm 3 m/s 731 mmHg 89%
    07:00 +14°C° 0 mm 3 m/s 732 mmHg 86%
    08:00 +17°C° 0 mm 3 m/s 732 mmHg 83%
    09:00 +18°C° 0 mm 3 m/s 732 mmHg 78%
    10:00 +19°C° 0 mm 3 m/s 732 mmHg 72%
    11:00 +20°C° 0 mm 3 m/s 732 mmHg 67%
    12:00 +21°C° 0.2 mm 3 m/s 732 mmHg 67%
    13:00 +21°C° 0.2 mm 3 m/s 732 mmHg 67%
    14:00 +21°C° 0.2 mm 3 m/s 732 mmHg 67%
    15:00 +21°C° 0.1 mm 3 m/s 732 mmHg 68%
    16:00 +21°C° 0.1 mm 3 m/s 732 mmHg 69%
    17:00 +21°C° 0.1 mm 2 m/s 732 mmHg 70%
    18:00 +20°C° 0.8 mm 2 m/s 732 mmHg 75%
    19:00 +19°C° 0.8 mm 2 m/s 732 mmHg 80%
    20:00 +17°C° 0.8 mm 2 m/s 731 mmHg 86%
    21:00 +17°C° 0 mm 2 m/s 732 mmHg 87%
    22:00 +16°C° 0 mm 2 m/s 732 mmHg 88%
    23:00 +16°C° 0 mm 3 m/s 732 mmHg 90%

    27 Mai, Lundi

    Heure Température Précipitation Vent Pression Humidité
    00:00 +14°C° 0 mm 3 m/s 732 mmHg 90%
    01:00 +15°C° 0 mm 2 m/s 732 mmHg 91%
    02:00 +15°C° 0 mm 2 m/s 732 mmHg 92%
    03:00 +15°C° 0 mm 2 m/s 732 mmHg 91%
    04:00 +15°C° 0 mm 2 m/s 732 mmHg 91%
    05:00 +15°C° 0 mm 1 m/s 732 mmHg 91%
    06:00 +16°C° 0 mm 2 m/s 732 mmHg 87%
    07:00 +18°C° 0 mm 2 m/s 732 mmHg 83%
    08:00 +20°C° 0 mm 2 m/s 733 mmHg 79%
    09:00 +21°C° 0 mm 2 m/s 733 mmHg 74%
    10:00 +23°C° 0 mm 2 m/s 733 mmHg 68%
    11:00 +24°C° 0 mm 2 m/s 733 mmHg 63%
    12:00 +25°C° 0 mm 3 m/s 732 mmHg 61%
    13:00 +26°C° 0 mm 3 m/s 732 mmHg 60%
    14:00 +26°C° 0 mm 3 m/s 732 mmHg 58%
    15:00 +26°C° 0.1 mm 3 m/s 732 mmHg 62%
    16:00 +26°C° 0.1 mm 3 m/s 732 mmHg 66%
    17:00 +26°C° 0.1 mm 2 m/s 731 mmHg 71%
    18:00 +24°C° 0.2 mm 2 m/s 731 mmHg 75%
    19:00 +21°C° 0.2 mm 2 m/s 731 mmHg 79%
    20:00 +20°C° 0.2 mm 2 m/s 731 mmHg 83%
    21:00 +19°C° 0.1 mm 2 m/s 731 mmHg 85%
    22:00 +19°C° 0.1 mm 2 m/s 731 mmHg 87%
    23:00 +18°C° 0.1 mm 2 m/s 731 mmHg 88%

    28 Mai, Mardi

    Heure Température Précipitation Vent Pression Humidité
    00:00 +18°C° 0 mm 3 m/s 731 mmHg 90%
    01:00 +17°C° 0 mm 3 m/s 730 mmHg 92%
    02:00 +17°C° 0 mm 3 m/s 730 mmHg 93%
    03:00 +17°C° 0 mm 3 m/s 730 mmHg 94%
    04:00 +16°C° 0 mm 3 m/s 730 mmHg 94%
    05:00 +16°C° 0 mm 3 m/s 730 mmHg 95%
    06:00 +17°C° 0.1 mm 4 m/s 730 mmHg 93%
    07:00 +18°C° 0.1 mm 4 m/s 729 mmHg 91%
    08:00 +19°C° 0.1 mm 4 m/s 729 mmHg 89%
    09:00 +20°C° 0 mm 5 m/s 729 mmHg 84%
    10:00 +21°C° 0 mm 6 m/s 729 mmHg 78%
    11:00 +23°C° 0 mm 7 m/s 729 mmHg 73%
    12:00 +23°C° 0 mm 7 m/s 728 mmHg 70%
    13:00 +24°C° 0 mm 8 m/s 728 mmHg 68%
    14:00 +24°C° 0 mm 8 m/s 727 mmHg 65%
    15:00 +24°C° 0 mm 8 m/s 727 mmHg 67%
    16:00 +24°C° 0 mm 7 m/s 727 mmHg 68%
    17:00 +24°C° 0 mm 6 m/s 726 mmHg 70%
    18:00 +23°C° 0 mm 6 m/s 726 mmHg 73%
    19:00 +22°C° 0 mm 5 m/s 726 mmHg 76%
    20:00 +21°C° 0 mm 4 m/s 726 mmHg 79%
    21:00 +20°C° 0.4 mm 4 m/s 726 mmHg 82%
    22:00 +19°C° 0.4 mm 4 m/s 726 mmHg 85%
    23:00 +19°C° 0.4 mm 4 m/s 727 mmHg 88%

    29 Mai, Mercredi

    Heure Température Précipitation Vent Pression Humidité
    00:00 +18°C° 0 mm 3 m/s 727 mmHg 89%
    01:00 +17°C° 0 mm 3 m/s 727 mmHg 90%
    02:00 +17°C° 0 mm 2 m/s 727 mmHg 90%
    03:00 +16°C° 0 mm 2 m/s 727 mmHg 90%
    04:00 +16°C° 0 mm 2 m/s 727 mmHg 89%
    05:00 +16°C° 0 mm 2 m/s 727 mmHg 89%
    06:00 +18°C° 0 mm 3 m/s 728 mmHg 83%
    07:00 +19°C° 0 mm 3 m/s 728 mmHg 78%
    08:00 +21°C° 0 mm 4 m/s 728 mmHg 72%
    09:00 +22°C° 0 mm 4 m/s 729 mmHg 69%
    10:00 +23°C° 0 mm 4 m/s 729 mmHg 65%
    11:00 +25°C° 0 mm 5 m/s 729 mmHg 62%
    12:00 +25°C° 0 mm 4 m/s 729 mmHg 61%
    13:00 +25°C° 0 mm 4 m/s 729 mmHg 60%
    14:00 +26°C° 0 mm 4 m/s 729 mmHg 59%
    15:00 +26°C° 0.5 mm 3 m/s 729 mmHg 60%
    16:00 +26°C° 0.5 mm 2 m/s 729 mmHg 61%
    17:00 +26°C° 0.5 mm 1 m/s 729 mmHg 61%
    18:00 +24°C° 0.2 mm 1 m/s 729 mmHg 67%
    19:00 +22°C° 0.2 mm 1 m/s 730 mmHg 73%
    20:00 +21°C° 0.2 mm 1 m/s 730 mmHg 79%
    21:00 +20°C° 0 mm 1 m/s 730 mmHg 81%
    22:00 +19°C° 0 mm 1 m/s 730 mmHg 83%
    23:00 +18°C° 0 mm 1 m/s 731 mmHg 85%
    Voir plus